Location: West Cummington
(42.4920°N, 72.9680°W)
Time: 04:01:38
(UTC-04:00)

Cosmos 1703 Rocket - Visible Passes

Search period start: 29 August 2014 00:00
Search period end: 08 September 2014 00:00
Orbit: 606 x 637 km, 82.5° (Epoch: 25 August)

Date Brightness Start Highest point End Pass type
(mag) Time Alt. Az. Time Alt. Az. Time Alt. Az.
29 Aug 6.5 01:38:16 13° NE 01:38:16 13° NE 01:38:56 10° NNE visible
29 Aug 5.8 03:15:29 17° NNW 03:15:29 17° NNW 03:16:52 10° NNW visible
30 Aug 6.3 01:56:28 17° NNE 01:56:28 17° NNE 01:57:30 10° NNE visible
30 Aug 6.1 03:33:41 11° NW 03:33:41 11° NW 03:34:04 10° NNW visible
31 Aug 6.2 02:14:39 18° N 02:14:39 18° N 02:15:44 10° N visible
01 Sep 6.2 02:32:49 15° N 02:32:49 15° N 02:33:42 10° N visible
02 Sep 6.3 02:50:58 12° NNW 02:50:58 12° NNW 02:51:20 10° NNW visible
03 Sep 6.7 01:31:54 11° NNE 01:31:54 11° NNE 01:32:09 10° NNE visible
04 Sep 6.6 01:50:02 12° N 01:50:02 12° N 01:50:19 10° N visible
05 Sep 6.6 02:08:10 10° N 02:08:10 10° N 02:08:14 10° N visible
